| time (UTC) | temp F | wind direction | speed MPH | gust MPH | rain 1hr in | rain 24hr in | rain mn in | humidity % | barometer mb |
| 20260901135548 | 57 | 335 | 2.0 | 8.0 | 0.00 | 0.00 | 0.00 | 78 | 1011.8 |
| 20260901135052 | 57 | 337 | 2.0 | 5.0 | 0.00 | 0.00 | 0.00 | 79 | 1011.8 |
| 20260901134601 | 57 | 332 | 2.0 | 8.0 | 0.00 | 0.00 | 0.00 | 78 | 1011.7 |
| 20260901134045 | 57 | 336 | 3.0 | 8.0 | 0.00 | 0.00 | 0.00 | 79 | 1011.7 |
| 20260901133548 | 57 | 343 | 2.0 | 6.0 | 0.00 | 0.00 | 0.00 | 79 | 1011.7 |
| 20260901133045 | 57 | 335 | 2.0 | 8.0 | 0.00 | 0.00 | 0.00 | 78 | 1011.6 |
| 20260901132545 | 57 | 333 | 3.0 | 8.0 | 0.00 | 0.00 | 0.00 | 79 | 1011.6 |
| 20260901132045 | 57 | 335 | 2.0 | 6.0 | 0.00 | 0.00 | 0.00 | 78 | 1011.6 |
| 20260901131543 | 57 | 326 | 2.0 | 6.0 | 0.00 | 0.00 | 0.00 | 78 | 1011.5 |
| 20260901131044 | 57 | 344 | 1.0 | 8.0 | 0.00 | 0.00 | 0.00 | 78 | 1011.5 |
| 20260901130546 | 57 | 292 | 3.0 | 8.0 | 0.00 | 0.00 | 0.00 | 78 | 1011.4 |
| 20260901130043 | 57 | 333 | 2.0 | 6.0 | 0.00 | 0.00 | 0.00 | 78 | 1011.5 |
| 20260901125543 | 57 | 345 | 2.0 | 6.0 | 0.00 | 0.00 | 0.00 | 78 | 1011.5 |
| 20260901125043 | 57 | 343 | 2.0 | 7.0 | 0.00 | 0.00 | 0.00 | 78 | 1011.5 |
| 20260901124553 | 58 | 347 | 2.0 | 7.0 | 0.00 | 0.00 | 0.00 | 77 | 1011.5 |
| 20260901124041 | 58 | 343 | 3.0 | 6.0 | 0.00 | 0.00 | 0.00 | 77 | 1011.5 |
| 20260901123540 | 58 | 302 | 3.0 | 8.0 | 0.00 | 0.00 | 0.00 | 77 | 1011.3 |
| 20260901123039 | 58 | 289 | 3.0 | 8.0 | 0.00 | 0.00 | 0.00 | 77 | 1011.2 |
| 20260901122540 | 58 | 307 | 3.0 | 8.0 | 0.00 | 0.00 | 0.00 | 77 | 1011.0 |
| 20260901122037 | 58 | 290 | 3.0 | 8.0 | 0.00 | 0.00 | 0.00 | 76 | 1011.0 |
| 20260901121536 | 58 | 307 | 3.0 | 6.0 | 0.00 | 0.00 | 0.00 | 76 | 1011.0 |
| 20260901121036 | 58 | 337 | 4.0 | 8.0 | 0.00 | 0.00 | 0.00 | 76 | 1010.9 |
| 20260901120536 | 58 | 328 | 3.0 | 8.0 | 0.00 | 0.00 | 0.00 | 76 | 1010.8 |
| 20260901120049 | 58 | 318 | 3.0 | 8.0 | 0.00 | 0.00 | 0.00 | 75 | 1010.8 |
| 20260901115534 | 58 | 354 | 3.0 | 8.0 | 0.00 | 0.00 | 0.00 | 75 | 1010.7 |
| 20260901115034 | 59 | 354 | 3.0 | 8.0 | 0.00 | 0.00 | 0.00 | 74 | 1010.6 |
| 20260901114539 | 59 | 345 | 3.0 | 9.0 | 0.00 | 0.00 | 0.00 | 75 | 1010.5 |
| 20260901114031 | 59 | 336 | 4.0 | 9.0 | 0.00 | 0.00 | 0.00 | 75 | 1010.5 |
| 20260901113534 | 59 | 332 | 3.0 | 8.0 | 0.00 | 0.00 | 0.00 | 75 | 1010.3 |
| 20260901113055 | 59 | 328 | 3.0 | 8.0 | 0.00 | 0.00 | 0.00 | 75 | 1010.3 |
| 20260901112530 | 59 | 323 | 3.0 | 7.0 | 0.00 | 0.00 | 0.00 | 75 | 1010.4 |
| 20260901112030 | 59 | 297 | 3.0 | 9.0 | 0.00 | 0.00 | 0.00 | 74 | 1010.4 |
| 20260901111530 | 59 | 291 | 3.0 | 9.0 | 0.00 | 0.00 | 0.00 | 74 | 1010.3 |
| 20260901111029 | 59 | 359 | 4.0 | 9.0 | 0.00 | 0.00 | 0.00 | 74 | 1010.3 |
| 20260901110528 | 59 | 329 | 3.0 | 6.0 | 0.00 | 0.00 | 0.00 | 74 | 1010.2 |
| 20260901110028 | 59 | 307 | 3.0 | 11.0 | 0.00 | 0.00 | 0.00 | 75 | 1010.3 |
| 20260901105528 | 59 | 303 | 4.0 | 11.0 | 0.00 | 0.00 | 0.00 | 75 | 1010.2 |
| 20260901105027 | 59 | 312 | 4.0 | 11.0 | 0.00 | 0.00 | 0.00 | 74 | 1010.2 |
| 20260901104529 | 59 | 270 | 5.0 | 11.0 | 0.00 | 0.00 | 0.00 | 74 | 1010.1 |
| 20260901104028 | 59 | 328 | 3.0 | 9.0 | 0.00 | 0.00 | 0.00 | 74 | 1010.0 |
| 20260901103525 | 59 | 300 | 4.0 | 10.0 | 0.00 | 0.00 | 0.00 | 75 | 1010.0 |
| 20260901103025 | 59 | 324 | 3.0 | 10.0 | 0.00 | 0.00 | 0.00 | 75 | 1010.0 |
| 20260901102524 | 59 | 312 | 3.0 | 10.0 | 0.00 | 0.00 | 0.00 | 75 | 1010.0 |
| 20260901102024 | 59 | 299 | 4.0 | 10.0 | 0.00 | 0.00 | 0.00 | 74 | 1010.1 |
| 20260901101532 | 59 | 339 | 4.0 | 8.0 | 0.00 | 0.00 | 0.00 | 74 | 1010.0 |
| 20260901101022 | 59 | 264 | 3.0 | 9.0 | 0.00 | 0.00 | 0.00 | 74 | 1010.1 |
| 20260901100521 | 59 | 318 | 3.0 | 8.0 | 0.00 | 0.00 | 0.00 | 74 | 1010.1 |
| 20260901100020 | 59 | 299 | 3.0 | 8.0 | 0.00 | 0.00 | 0.00 | 74 | 1010.2 |
| 20260901095519 | 59 | 314 | 3.0 | 9.0 | 0.00 | 0.00 | 0.00 | 74 | 1010.2 |
| 20260901095019 | 60 | 318 | 3.0 | 9.0 | 0.00 | 0.00 | 0.00 | 74 | 1010.2 |
| 20260901094518 | 60 | 295 | 4.0 | 9.0 | 0.00 | 0.00 | 0.00 | 74 | 1010.1 |
| 20260901094016 | 60 | 271 | 4.0 | 9.0 | 0.00 | 0.00 | 0.00 | 74 | 1010.1 |
| 20260901093516 | 60 | 341 | 4.0 | 10.0 | 0.00 | 0.00 | 0.00 | 74 | 1010.1 |
| 20260901093020 | 60 | 332 | 2.0 | 11.0 | 0.00 | 0.00 | 0.00 | 74 | 1009.9 |
| 20260901092513 | 60 | 324 | 6.0 | 11.0 | 0.00 | 0.00 | 0.00 | 74 | 1009.9 |
| 20260901092012 | 60 | 295 | 4.0 | 12.0 | 0.00 | 0.00 | 0.00 | 74 | 1009.7 |
| 20260901091512 | 60 | 11 | 2.0 | 12.0 | 0.00 | 0.00 | 0.00 | 74 | 1009.7 |
| 20260901091011 | 60 | 341 | 4.0 | 15.0 | 0.00 | 0.00 | 0.00 | 74 | 1009.5 |
| 20260901090511 | 60 | 335 | 5.0 | 15.0 | 0.00 | 0.00 | 0.00 | 74 | 1009.8 |
| 20260901090013 | 60 | 324 | 3.0 | 10.0 | 0.00 | 0.00 | 0.00 | 74 | 1009.8 |
| 20260901085510 | 60 | 335 | 3.0 | 12.0 | 0.00 | 0.00 | 0.00 | 74 | 1009.9 |
| 20260901085008 | 61 | 336 | 5.0 | 15.0 | 0.00 | 0.00 | 0.00 | 73 | 1009.8 |
| 20260901084524 | 61 | 326 | 7.0 | 15.0 | 0.00 | 0.00 | 0.00 | 73 | 1009.9 |
| 20260901084010 | 61 | 333 | 4.0 | 10.0 | 0.00 | 0.00 | 0.00 | 73 | 1009.9 |
| 20260901083509 | 61 | 307 | 3.0 | 11.0 | 0.00 | 0.00 | 0.00 | 73 | 1009.9 |
| 20260901083005 | 61 | 327 | 6.0 | 11.0 | 0.00 | 0.00 | 0.00 | 73 | 1010.0 |
| 20260901082503 | 61 | 299 | 3.0 | 13.0 | 0.00 | 0.00 | 0.00 | 72 | 1010.0 |
| 20260901082003 | 61 | 349 | 5.0 | 13.0 | 0.00 | 0.00 | 0.00 | 72 | 1009.9 |
| 20260901081504 | 61 | 339 | 3.0 | 11.0 | 0.00 | 0.00 | 0.00 | 72 | 1009.9 |
| 20260901081005 | 61 | 330 | 3.0 | 11.0 | 0.00 | 0.00 | 0.00 | 71 | 1010.0 |
| 20260901080503 | 61 | 323 | 4.0 | 10.0 | 0.00 | 0.00 | 0.00 | 71 | 1010.0 |
| 20260901080003 | 61 | 335 | 4.0 | 11.0 | 0.00 | 0.00 | 0.00 | 71 | 1009.9 |
| 20260901075503 | 61 | 337 | 4.0 | 11.0 | 0.00 | 0.00 | 0.00 | 71 | 1009.9 |
| 20260901075004 | 61 | 345 | 5.0 | 15.0 | 0.00 | 0.00 | 0.00 | 71 | 1010.0 |
| 20260901074605 | 61 | 341 | 5.0 | 15.0 | 0.00 | 0.00 | 0.00 | 71 | 1009.9 |
| 20260901074058 | 62 | 310 | 6.0 | 14.0 | 0.00 | 0.00 | 0.00 | 71 | 1009.9 |
| 20260901073558 | 62 | 336 | 6.0 | 12.0 | 0.00 | 0.00 | 0.00 | 71 | 1009.9 |
| 20260901073103 | 62 | 296 | 5.0 | 11.0 | 0.00 | 0.00 | 0.00 | 71 | 1009.8 |
| 20260901072557 | 62 | 340 | 6.0 | 13.0 | 0.00 | 0.00 | 0.00 | 71 | 1009.8 |
| 20260901072059 | 62 | 308 | 5.0 | 13.0 | 0.00 | 0.00 | 0.00 | 71 | 1009.8 |
| 20260901071557 | 62 | 4 | 4.0 | 10.0 | 0.00 | 0.00 | 0.00 | 71 | 1009.8 |
| 20260901071057 | 62 | 327 | 3.0 | 10.0 | 0.00 | 0.00 | 0.00 | 71 | 1009.8 |
| 20260901070559 | 62 | 332 | 3.0 | 11.0 | 0.00 | 0.00 | 0.00 | 71 | 1009.8 |
| 20260901070101 | 63 | 313 | 6.0 | 11.0 | 0.00 | 0.00 | 0.00 | 71 | 1009.8 |
| 20260901065553 | 63 | 333 | 3.0 | 13.0 | 0.00 | 0.00 | 0.00 | 70 | 1009.8 |
| 20260901065052 | 63 | 322 | 5.0 | 13.0 | 0.00 | 0.00 | 0.00 | 70 | 1009.7 |
| 20260901064552 | 63 | 317 | 6.0 | 11.0 | 0.00 | 0.00 | 0.00 | 70 | 1009.7 |
| 20260901064051 | 63 | 307 | 5.0 | 12.0 | 0.00 | 0.00 | 0.00 | 70 | 1009.7 |
| 20260901063550 | 63 | 315 | 5.0 | 11.0 | 0.00 | 0.00 | 0.00 | 69 | 1009.6 |
| 20260901063050 | 63 | 290 | 4.0 | 12.0 | 0.00 | 0.00 | 0.00 | 69 | 1009.5 |
| 20260901062550 | 63 | 275 | 6.0 | 14.0 | 0.00 | 0.00 | 0.00 | 69 | 1009.6 |
| 20260901062052 | 63 | 314 | 5.0 | 14.0 | 0.00 | 0.00 | 0.00 | 69 | 1009.5 |
| 20260901061550 | 63 | 335 | 4.0 | 12.0 | 0.00 | 0.00 | 0.00 | 68 | 1009.5 |
| 20260901061049 | 64 | 278 | 6.0 | 12.0 | 0.00 | 0.00 | 0.00 | 68 | 1009.3 |
| 20260901060549 | 64 | 259 | 5.0 | 13.0 | 0.00 | 0.00 | 0.00 | 68 | 1009.3 |
| 20260901060049 | 64 | 313 | 5.0 | 13.0 | 0.00 | 0.00 | 0.00 | 67 | 1009.3 |
| 20260901055550 | 64 | 343 | 5.0 | 12.0 | 0.00 | 0.00 | 0.00 | 67 | 1009.3 |
| 20260901055048 | 64 | 303 | 4.0 | 11.0 | 0.00 | 0.00 | 0.00 | 67 | 1009.3 |
| 20260901054550 | 65 | 324 | 5.0 | 16.0 | 0.00 | 0.00 | 0.00 | 66 | 1009.2 |
| 20260901054048 | 65 | 324 | 4.0 | 16.0 | 0.00 | 0.00 | 0.00 | 65 | 1009.2 |
| 20260901053549 | 65 | 266 | 6.0 | 14.0 | 0.00 | 0.00 | 0.00 | 65 | 1009.2 |
| 20260901053105 | 65 | 299 | 7.0 | 15.0 | 0.00 | 0.00 | 0.00 | 65 | 1009.1 |
| 20260901052547 | 66 | 289 | 6.0 | 14.0 | 0.00 | 0.00 | 0.00 | 64 | 1009.2 |
| 20260901052046 | 66 | 331 | 7.0 | 14.0 | 0.00 | 0.00 | 0.00 | 63 | 1009.0 |
| 20260901051548 | 66 | 296 | 4.0 | 15.0 | 0.00 | 0.00 | 0.00 | 63 | 1009.0 |
| 20260901051046 | 66 | 291 | 7.0 | 16.0 | 0.00 | 0.00 | 0.00 | 63 | 1009.0 |
| 20260901050547 | 67 | 296 | 8.0 | 17.0 | 0.00 | 0.00 | 0.00 | 62 | 1008.9 |
| 20260901050046 | 67 | 290 | 7.0 | 17.0 | 0.00 | 0.00 | 0.00 | 62 | 1008.8 |
| 20260901045545 | 68 | 315 | 6.0 | 13.0 | 0.00 | 0.00 | 0.00 | 61 | 1008.8 |
| 20260901045049 | 68 | 297 | 5.0 | 12.0 | 0.00 | 0.00 | 0.00 | 60 | 1008.9 |
| 20260901044614 | 68 | 307 | 4.0 | 10.0 | 0.00 | 0.00 | 0.00 | 59 | 1008.8 |
| 20260901044044 | 69 | 337 | 5.0 | 10.0 | 0.00 | 0.00 | 0.00 | 59 | 1008.7 |
| 20260901043544 | 69 | 338 | 3.0 | 12.0 | 0.00 | 0.00 | 0.00 | 58 | 1008.6 |
| 20260901043044 | 69 | 323 | 6.0 | 12.0 | 0.00 | 0.00 | 0.00 | 57 | 1008.5 |
| 20260901042543 | 70 | 4 | 7.0 | 14.0 | 0.00 | 0.00 | 0.00 | 57 | 1008.5 |
| 20260901042043 | 70 | 230 | 8.0 | 15.0 | 0.00 | 0.00 | 0.00 | 56 | 1008.4 |
| 20260901041543 | 70 | 319 | 7.0 | 15.0 | 0.00 | 0.00 | 0.00 | 55 | 1008.4 |
| 20260901041045 | 71 | 339 | 6.0 | 14.0 | 0.00 | 0.00 | 0.00 | 54 | 1008.3 |
| 20260901040544 | 71 | 343 | 5.0 | 12.0 | 0.00 | 0.00 | 0.00 | 53 | 1008.1 |
| 20260901040043 | 72 | 311 | 3.0 | 11.0 | 0.00 | 0.00 | 0.00 | 52 | 1008.0 |
| 20260901035543 | 72 | 322 | 5.0 | 12.0 | 0.00 | 0.00 | 0.00 | 51 | 1008.0 |
| 20260901035042 | 73 | 326 | 3.0 | 11.0 | 0.00 | 0.00 | 0.00 | 51 | 1007.8 |
| 20260901034551 | 73 | 258 | 4.0 | 11.0 | 0.00 | 0.00 | 0.00 | 50 | 1007.7 |
| 20260901034041 | 73 | 324 | 5.0 | 12.0 | 0.00 | 0.00 | 0.00 | 49 | 1007.7 |
| 20260901033541 | 74 | 297 | 6.0 | 14.0 | 0.00 | 0.00 | 0.00 | 49 | 1007.6 |
| 20260901033046 | 74 | 344 | 6.0 | 14.0 | 0.00 | 0.00 | 0.00 | 48 | 1007.5 |
| 20260901032544 | 74 | 274 | 7.0 | 12.0 | 0.00 | 0.00 | 0.00 | 47 | 1007.3 |
| 20260901032042 | 75 | 308 | 5.0 | 11.0 | 0.00 | 0.00 | 0.00 | 47 | 1007.4 |
| 20260901031547 | 75 | 241 | 5.0 | 12.0 | 0.00 | 0.00 | 0.00 | 46 | 1007.3 |
| 20260901031044 | 75 | 297 | 4.0 | 12.0 | 0.00 | 0.00 | 0.00 | 46 | 1007.1 |
| 20260901030544 | 76 | 321 | 4.0 | 11.0 | 0.00 | 0.00 | 0.00 | 45 | 1007.1 |
| 20260901030041 | 76 | 286 | 4.0 | 10.0 | 0.00 | 0.00 | 0.00 | 45 | 1007.1 |
| 20260901025541 | 76 | 295 | 3.0 | 10.0 | 0.00 | 0.00 | 0.00 | 45 | 1007.1 |
| 20260901025043 | 76 | 334 | 5.0 | 10.0 | 0.00 | 0.00 | 0.00 | 44 | 1007.0 |
| 20260901024541 | 77 | 314 | 3.0 | 9.0 | 0.00 | 0.00 | 0.00 | 44 | 1007.0 |
| 20260901024041 | 77 | 324 | 4.0 | 10.0 | 0.00 | 0.00 | 0.00 | 43 | 1007.0 |
| 20260901023540 | 77 | 295 | 4.0 | 13.0 | 0.00 | 0.00 | 0.00 | 43 | 1007.0 |
| 20260901023043 | 78 | 273 | 6.0 | 13.0 | 0.00 | 0.00 | 0.00 | 42 | 1006.9 |
| 20260901022641 | 78 | 290 | 4.0 | 10.0 | 0.00 | 0.00 | 0.00 | 42 | 1006.9 |
| 20260901022040 | 79 | 326 | 4.0 | 10.0 | 0.00 | 0.00 | 0.00 | 42 | 1006.7 |
| 20260901021600 | 79 | 310 | 5.0 | 10.0 | 0.00 | 0.00 | 0.00 | 42 | 1006.7 |
| 20260901021045 | 80 | 289 | 3.0 | 13.0 | 0.00 | 0.00 | 0.00 | 41 | 1006.6 |
| 20260901020539 | 80 | 268 | 4.0 | 12.0 | 0.00 | 0.00 | 0.00 | 40 | 1006.6 |
| 20260901020059 | 81 | 304 | 7.0 | 12.0 | 0.00 | 0.00 | 0.00 | 39 | 1006.6 |
| 20260901015538 | 81 | 341 | 5.0 | 12.0 | 0.00 | 0.00 | 0.00 | 38 | 1006.5 |
| 20260901015040 | 82 | 341 | 5.0 | 10.0 | 0.00 | 0.00 | 0.00 | 37 | 1006.5 |
| 20260901014538 | 82 | 331 | 4.0 | 9.0 | 0.00 | 0.00 | 0.00 | 37 | 1006.4 |
| 20260901014039 | 82 | 305 | 4.0 | 11.0 | 0.00 | 0.00 | 0.00 | 36 | 1006.4 |
| 20260901013537 | 83 | 354 | 4.0 | 11.0 | 0.00 | 0.00 | 0.00 | 35 | 1006.4 |
| 20260901013042 | 83 | 24 | 4.0 | 9.0 | 0.00 | 0.00 | 0.00 | 35 | 1006.4 |
| 20260901012537 | 83 | 326 | 3.0 | 10.0 | 0.00 | 0.00 | 0.00 | 35 | 1006.5 |
| 20260901012038 | 84 | 336 | 4.0 | 10.0 | 0.00 | 0.00 | 0.00 | 35 | 1006.6 |
| 20260901011541 | 84 | 66 | 4.0 | 10.0 | 0.00 | 0.00 | 0.00 | 34 | 1006.6 |
| 20260901011038 | 84 | 283 | 5.0 | 10.0 | 0.00 | 0.00 | 0.00 | 34 | 1006.5 |
| 20260901010538 | 85 | 325 | 2.0 | 10.0 | 0.00 | 0.00 | 0.00 | 34 | 1006.4 |
| 20260901010042 | 85 | 303 | 3.0 | 8.0 | 0.00 | 0.00 | 0.00 | 34 | 1006.4 |
| 20260901005537 | 85 | 324 | 2.0 | 8.0 | 0.00 | 0.00 | 0.00 | 34 | 1006.5 |
| 20260901005036 | 85 | 308 | 3.0 | 11.0 | 0.00 | 0.00 | 0.00 | 34 | 1006.5 |
| 20260901004541 | 85 | 16 | 3.0 | 9.0 | 0.00 | 0.00 | 0.00 | 34 | 1006.5 |
| 20260901004036 | 86 | 283 | 4.0 | 9.0 | 0.00 | 0.00 | 0.00 | 33 | 1006.5 |
| 20260901003535 | 86 | 330 | 2.0 | 8.0 | 0.00 | 0.00 | 0.00 | 33 | 1006.5 |
| 20260901003043 | 86 | 335 | 4.0 | 8.0 | 0.00 | 0.00 | 0.00 | 33 | 1006.5 |
| 20260901002535 | 86 | 276 | 4.0 | 8.0 | 0.00 | 0.00 | 0.00 | 34 | 1006.6 |
| 20260901002035 | 86 | 18 | 4.0 | 11.0 | 0.00 | 0.00 | 0.00 | 34 | 1006.5 |
| 20260901001541 | 86 | 305 | 4.0 | 11.0 | 0.00 | 0.00 | 0.00 | 34 | 1006.6 |
| 20260901001034 | 86 | 354 | 3.0 | 9.0 | 0.00 | 0.00 | 0.00 | 34 | 1006.6 |
| 20260901000534 | 86 | 343 | 4.0 | 9.0 | 0.00 | 0.00 | 0.00 | 33 | 1006.6 |
| 20260901000034 | 86 | 249 | 3.0 | 10.0 | 0.00 | 0.00 | 0.00 | 33 | 1006.6 |
| 20260831235533 | 86 | 319 | 4.0 | 12.0 | 0.00 | 0.00 | 0.00 | 34 | 1006.6 |
| 20260831235033 | 87 | 324 | 6.0 | 12.0 | 0.00 | 0.00 | 0.00 | 33 | 1006.7 |
| 20260831234539 | 87 | 277 | 4.0 | 9.0 | 0.00 | 0.00 | 0.00 | 33 | 1006.7 |
| 20260831234032 | 87 | 233 | 5.0 | 9.0 | 0.00 | 0.00 | 0.00 | 33 | 1006.8 |
| 20260831233535 | 87 | 301 | 4.0 | 10.0 | 0.00 | 0.00 | 0.00 | 33 | 1006.8 |
| 20260831233042 | 86 | 293 | 4.0 | 10.0 | 0.00 | 0.00 | 0.00 | 33 | 1006.8 |
| 20260831232530 | 87 | 272 | 5.0 | 11.0 | 0.00 | 0.00 | 0.00 | 33 | 1006.8 |
| 20260831232034 | 86 | 258 | 3.0 | 10.0 | 0.00 | 0.00 | 0.00 | 33 | 1006.8 |
| 20260831231530 | 86 | 288 | 5.0 | 14.0 | 0.00 | 0.00 | 0.00 | 34 | 1006.9 |
| 20260831231030 | 87 | 273 | 7.0 | 14.0 | 0.00 | 0.00 | 0.00 | 33 | 1006.9 |
| 20260831230530 | 87 | 261 | 5.0 | 11.0 | 0.00 | 0.00 | 0.00 | 32 | 1006.9 |
| 20260831230030 | 87 | 309 | 3.0 | 11.0 | 0.00 | 0.00 | 0.00 | 33 | 1007.0 |
| 20260831225530 | 87 | 243 | 6.0 | 12.0 | 0.00 | 0.00 | 0.00 | 32 | 1007.1 |
| 20260831225032 | 87 | 272 | 4.0 | 12.0 | 0.00 | 0.00 | 0.00 | 32 | 1007.0 |
| 20260831224529 | 87 | 291 | 5.0 | 10.0 | 0.00 | 0.00 | 0.00 | 32 | 1007.1 |
| 20260831224028 | 87 | 192 | 1.0 | 10.0 | 0.00 | 0.00 | 0.00 | 31 | 1007.1 |
| 20260831223528 | 87 | 343 | 4.0 | 9.0 | 0.00 | 0.00 | 0.00 | 31 | 1007.2 |
| 20260831223032 | 87 | 327 | 4.0 | 9.0 | 0.00 | 0.00 | 0.00 | 32 | 1007.2 |
| 20260831222527 | 86 | 280 | 2.0 | 9.0 | 0.00 | 0.00 | 0.00 | 32 | 1007.3 |
| 20260831222027 | 86 | 4 | 3.0 | 9.0 | 0.00 | 0.00 | 0.00 | 34 | 1007.4 |
| 20260831221528 | 87 | 336 | 5.0 | 9.0 | 0.00 | 0.00 | 0.00 | 32 | 1007.5 |
| 20260831221027 | 87 | 306 | 2.0 | 12.0 | 0.00 | 0.00 | 0.00 | 32 | 1007.5 |
| 20260831220527 | 86 | 287 | 5.0 | 12.0 | 0.00 | 0.00 | 0.00 | 32 | 1007.5 |
| 20260831220029 | 87 | 327 | 3.0 | 9.0 | 0.00 | 0.00 | 0.00 | 32 | 1007.6 |
| 20260831215527 | 87 | 316 | 1.0 | 9.0 | 0.00 | 0.00 | 0.00 | 33 | 1007.6 |
| 20260831215026 | 86 | 268 | 4.0 | 9.0 | 0.00 | 0.00 | 0.00 | 33 | 1007.6 |
| 20260831214524 | 86 | 262 | 4.0 | 9.0 | 0.00 | 0.00 | 0.00 | 33 | 1007.7 |
| 20260831214022 | 85 | 317 | 1.0 | 9.0 | 0.00 | 0.00 | 0.00 | 33 | 1007.8 |
| 20260831213523 | 85 | 304 | 5.0 | 11.0 | 0.00 | 0.00 | 0.00 | 34 | 1007.8 |
| 20260831213031 | 86 | 258 | 5.0 | 9.0 | 0.00 | 0.00 | 0.00 | 33 | 1007.8 |
| 20260831212530 | 85 | 312 | 2.0 | 7.0 | 0.00 | 0.00 | 0.00 | 34 | 1007.9 |
| 20260831212020 | 84 | 258 | 2.0 | 8.0 | 0.00 | 0.00 | 0.00 | 35 | 1008.0 |
| 20260831211518 | 84 | 322 | 3.0 | 8.0 | 0.00 | 0.00 | 0.00 | 36 | 1008.1 |
| 20260831211017 | 83 | 359 | 2.0 | 9.0 | 0.00 | 0.00 | 0.00 | 36 | 1008.2 |
| 20260831210518 | 84 | 335 | 3.0 | 9.0 | 0.00 | 0.00 | 0.00 | 35 | 1008.2 |
| 20260831210020 | 83 | 199 | 3.0 | 10.0 | 0.00 | 0.00 | 0.00 | 36 | 1008.2 |
| 20260831205517 | 83 | 285 | 6.0 | 10.0 | 0.00 | 0.00 | 0.00 | 36 | 1008.3 |
| 20260831205016 | 83 | 316 | 4.0 | 10.0 | 0.00 | 0.00 | 0.00 | 35 | 1008.3 |
| 20260831204515 | 82 | 200 | 4.0 | 9.0 | 0.00 | 0.00 | 0.00 | 37 | 1008.3 |
| 20260831204018 | 82 | 267 | 4.0 | 10.0 | 0.00 | 0.00 | 0.00 | 37 | 1008.3 |
| 20260831203513 | 82 | 231 | 6.0 | 10.0 | 0.00 | 0.00 | 0.00 | 38 | 1008.4 |
| 20260831203012 | 81 | 350 | 4.0 | 8.0 | 0.00 | 0.00 | 0.00 | 41 | 1008.4 |
| 20260831202513 | 81 | 313 | 2.0 | 9.0 | 0.00 | 0.00 | 0.00 | 40 | 1008.5 |
| 20260831202012 | 81 | 312 | 4.0 | 9.0 | 0.00 | 0.00 | 0.00 | 39 | 1008.5 |
| 20260831201512 | 82 | 334 | 3.0 | 8.0 | 0.00 | 0.00 | 0.00 | 41 | 1008.5 |
| 20260831201015 | 81 | 308 | 2.0 | 7.0 | 0.00 | 0.00 | 0.00 | 42 | 1008.6 |
| 20260831200510 | 81 | 260 | 1.0 | 8.0 | 0.00 | 0.00 | 0.00 | 43 | 1008.6 |
| 20260831200020 | 80 | 220 | 2.0 | 7.0 | 0.00 | 0.00 | 0.00 | 43 | 1008.7 |
| 20260831195508 | 79 | 220 | 2.0 | 10.0 | 0.00 | 0.00 | 0.00 | 45 | 1008.8 |
| 20260831195007 | 79 | 23 | 5.0 | 10.0 | 0.00 | 0.00 | 0.00 | 44 | 1008.9 |
| 20260831194510 | 78 | 229 | 2.0 | 8.0 | 0.00 | 0.00 | 0.00 | 42 | 1008.9 |
| 20260831194005 | 79 | 350 | 3.0 | 11.0 | 0.00 | 0.00 | 0.00 | 42 | 1009.0 |
| 20260831193507 | 78 | 276 | 5.0 | 11.0 | 0.00 | 0.00 | 0.00 | 42 | 1009.1 |
| 20260831193003 | 79 | 249 | 5.0 | 10.0 | 0.00 | 0.00 | 0.00 | 44 | 1009.2 |
| 20260831192502 | 78 | 256 | 3.0 | 9.0 | 0.00 | 0.00 | 0.00 | 46 | 1009.2 |
| 20260831192001 | 78 | 330 | 3.0 | 9.0 | 0.00 | 0.00 | 0.00 | 47 | 1009.2 |
| 20260831191501 | 78 | 241 | 3.0 | 9.0 | 0.00 | 0.00 | 0.00 | 46 | 1009.3 |
| 20260831191103 | 78 | 35 | 4.0 | 9.0 | 0.00 | 0.00 | 0.00 | 46 | 1009.3 |
| 20260831190600 | 77 | 265 | 3.0 | 11.0 | 0.00 | 0.00 | 0.00 | 47 | 1009.4 |
| 20260831190116 | 77 | 268 | 6.0 | 11.0 | 0.00 | 0.00 | 0.00 | 46 | 1009.3 |
| 20260831185558 | 77 | 271 | 5.0 | 10.0 | 0.00 | 0.00 | 0.00 | 47 | 1009.4 |
| 20260831185057 | 77 | 318 | 3.0 | 9.0 | 0.00 | 0.00 | 0.00 | 46 | 1009.3 |
| 20260831184621 | 76 | 234 | 5.0 | 11.0 | 0.00 | 0.00 | 0.00 | 49 | 1009.3 |
| 20260831184057 | 76 | 323 | 5.0 | 11.0 | 0.00 | 0.00 | 0.00 | 49 | 1009.4 |
| 20260831183553 | 75 | 233 | 6.0 | 10.0 | 0.00 | 0.00 | 0.00 | 50 | 1009.4 |
| 20260831183102 | 75 | 343 | 4.0 | 11.0 | 0.00 | 0.00 | 0.00 | 50 | 1009.4 |
| 20260831182552 | 75 | 257 | 4.0 | 9.0 | 0.00 | 0.00 | 0.00 | 50 | 1009.4 |
| 20260831182050 | 75 | 314 | 3.0 | 8.0 | 0.00 | 0.00 | 0.00 | 51 | 1009.4 |
| 20260831181550 | 74 | 335 | 3.0 | 9.0 | 0.00 | 0.00 | 0.00 | 52 | 1009.4 |
| 20260831181048 | 74 | 306 | 3.0 | 8.0 | 0.00 | 0.00 | 0.00 | 52 | 1009.5 |
| 20260831180548 | 74 | 268 | 5.0 | 8.0 | 0.00 | 0.00 | 0.00 | 51 | 1009.4 |
| 20260831180048 | 74 | 344 | 2.0 | 6.0 | 0.00 | 0.00 | 0.00 | 52 | 1009.4 |
| 20260831175549 | 74 | 17 | 2.0 | 8.0 | 0.00 | 0.00 | 0.00 | 54 | 1009.4 |
| 20260831175045 | 73 | 17 | 3.0 | 8.0 | 0.00 | 0.00 | 0.00 | 54 | 1009.4 |
| 20260831174549 | 72 | 359 | 1.0 | 8.0 | 0.00 | 0.00 | 0.00 | 57 | 1009.3 |
| 20260831174044 | 72 | 247 | 4.0 | 10.0 | 0.00 | 0.00 | 0.00 | 56 | 1009.4 |
| 20260831173541 | 71 | 330 | 5.0 | 10.0 | 0.00 | 0.00 | 0.00 | 56 | 1009.3 |
| 20260831173053 | 71 | 336 | 3.0 | 9.0 | 0.00 | 0.00 | 0.00 | 57 | 1009.3 |
| 20260831172541 | 71 | 318 | 4.0 | 9.0 | 0.00 | 0.00 | 0.00 | 57 | 1009.3 |
| 20260831172037 | 70 | 342 | 2.0 | 9.0 | 0.00 | 0.00 | 0.00 | 58 | 1009.3 |
| 20260831171536 | 70 | 284 | 4.0 | 11.0 | 0.00 | 0.00 | 0.00 | 59 | 1009.3 |
| 20260831171035 | 70 | 304 | 7.0 | 11.0 | 0.00 | 0.00 | 0.00 | 59 | 1009.3 |
| 20260831170534 | 69 | 296 | 4.0 | 8.0 | 0.00 | 0.00 | 0.00 | 61 | 1009.2 |
| 20260831170033 | 68 | 332 | 3.0 | 9.0 | 0.00 | 0.00 | 0.00 | 62 | 1009.2 |
| 20260831165534 | 68 | 312 | 3.0 | 9.0 | 0.00 | 0.00 | 0.00 | 61 | 1009.2 |
| 20260831165030 | 68 | 349 | 4.0 | 9.0 | 0.00 | 0.00 | 0.00 | 62 | 1009.1 |
| 20260831164532 | 67 | 349 | 2.0 | 9.0 | 0.00 | 0.00 | 0.00 | 63 | 1009.1 |
| 20260831164027 | 68 | 273 | 4.0 | 10.0 | 0.00 | 0.00 | 0.00 | 62 | 1009.1 |
| 20260831163525 | 67 | 341 | 2.0 | 10.0 | 0.00 | 0.00 | 0.00 | 64 | 1009.1 |
| 20260831163025 | 67 | 264 | 3.0 | 9.0 | 0.00 | 0.00 | 0.00 | 64 | 1009.1 |
| 20260831162524 | 67 | 337 | 4.0 | 10.0 | 0.00 | 0.00 | 0.00 | 64 | 1009.2 |
| 20260831162022 | 66 | 247 | 4.0 | 10.0 | 0.00 | 0.00 | 0.00 | 65 | 1009.2 |
| 20260831161521 | 66 | 319 | 3.0 | 11.0 | 0.00 | 0.00 | 0.00 | 65 | 1009.2 |
| 20260831161021 | 66 | 359 | 5.0 | 11.0 | 0.00 | 0.00 | 0.00 | 65 | 1009.2 |
| 20260831160518 | 65 | 249 | 4.0 | 9.0 | 0.00 | 0.00 | 0.00 | 66 | 1009.2 |
| 20260831160026 | 65 | 321 | 3.0 | 10.0 | 0.00 | 0.00 | 0.00 | 67 | 1009.0 |
| 20260831155515 | 65 | 329 | 5.0 | 10.0 | 0.00 | 0.00 | 0.00 | 67 | 1009.0 |
| 20260831155015 | 65 | 330 | 3.0 | 9.0 | 0.00 | 0.00 | 0.00 | 68 | 1009.0 |
| 20260831154517 | 64 | 333 | 3.0 | 8.0 | 0.00 | 0.00 | 0.00 | 69 | 1008.9 |
| 20260831154014 | 64 | 293 | 3.0 | 8.0 | 0.00 | 0.00 | 0.00 | 69 | 1008.9 |
| 20260831153513 | 64 | 299 | 3.0 | 6.0 | 0.00 | 0.00 | 0.00 | 69 | 1008.8 |
| 20260831153008 | 64 | 343 | 4.0 | 9.0 | 0.00 | 0.00 | 0.00 | 69 | 1008.8 |
| 20260831152508 | 64 | 286 | 4.0 | 10.0 | 0.00 | 0.00 | 0.00 | 69 | 1008.7 |
| 20260831152007 | 63 | 336 | 3.0 | 10.0 | 0.00 | 0.00 | 0.00 | 69 | 1008.7 |
| 20260831151507 | 63 | 280 | 4.0 | 8.0 | 0.00 | 0.00 | 0.00 | 70 | 1008.7 |
| 20260831151007 | 63 | 330 | 3.0 | 9.0 | 0.00 | 0.00 | 0.00 | 70 | 1008.6 |
| 20260831150507 | 63 | 232 | 4.0 | 9.0 | 0.00 | 0.00 | 0.00 | 71 | 1008.7 |
| 20260831150013 | 63 | 287 | 2.0 | 8.0 | 0.00 | 0.00 | 0.00 | 71 | 1008.5 |
| 20260831145506 | 62 | 312 | 3.0 | 7.0 | 0.00 | 0.00 | 0.00 | 71 | 1008.5 |
| 20260831145003 | 62 | 289 | 3.0 | 8.0 | 0.00 | 0.00 | 0.00 | 72 | 1008.5 |
| 20260831144502 | 62 | 303 | 3.0 | 8.0 | 0.00 | 0.00 | 0.00 | 72 | 1008.4 |
| 20260831144001 | 62 | 291 | 3.0 | 7.0 | 0.00 | 0.00 | 0.00 | 73 | 1008.3 |
| 20260831143559 | 61 | 264 | 2.0 | 7.0 | 0.00 | 0.00 | 0.00 | 73 | 1008.3 |
| 20260831143058 | 61 | 268 | 2.0 | 7.0 | 0.00 | 0.00 | 0.00 | 73 | 1008.2 |
| 20260831142557 | 61 | 311 | 2.0 | 4.0 | 0.00 | 0.00 | 0.00 | 73 | 1008.0 |
| 20260831142055 | 61 | 310 | 2.0 | 7.0 | 0.00 | 0.00 | 0.00 | 74 | 1008.0 |
| 20260831141554 | 61 | 268 | 3.0 | 5.0 | 0.00 | 0.00 | 0.00 | 74 | 1008.0 |
| 20260831141057 | 61 | 258 | 2.0 | 6.0 | 0.00 | 0.00 | 0.00 | 74 | 1008.0 |
| 20260831140556 | 61 | 275 | 2.0 | 6.0 | 0.00 | 0.00 | 0.00 | 73 | 1007.9 |
| 20260831140051 | 61 | 296 | 3.0 | 7.0 | 0.00 | 0.00 | 0.00 | 73 | 1007.8 |